Tracking 29892 objects as of 21-Nov-2024
HD Live streaming from Space Station
objects crossing your sky now

LAGEOS 2

Track LAGEOS 2 now!
10-day predictions
LAGEOS 2 is classified as:


NORAD ID: 22195
Int'l Code: 1992-070B
Perigee: 5,623.8 km
Apogee: 5,958.0 km
Inclination: 52.7 °
Period: 222.5 minutes
Semi major axis: 12161 km
RCS: 0.3981 m2 (medium)
Launch date: October 22, 1992
Source: Italy (IT)
Launch site: AIR FORCE EASTERN TEST RANGE (AFETR)
Your satellite tracking list
Your tracking list is empty




NASA's NSSDC Master Catalog

Two Line Element Set (TLE):
1 22195U 92070B   24325.54516472 -.00000009  00000-0  00000-0 0  9997
2 22195  52.6555 269.1888 0137373 296.1048 208.9276  6.47293744758285
Source of the keplerian elements: AFSPC